Location: Fiennes
(50.8274°N, 1.8253°E)
Time: 23:33:00
(UTC+00:00)

Cosmos 2322 Rocket - Pass Details

Date: 15 May 2026
Orbit: 831 x 850 km, 71.0° (Epoch: 11 June)

Event Time Altitude Azimuth Distance (km) Brightness Sun altitude
Rises 20:32:22 0° 331° (NNW) 3,406 7.0 -7.9°
Reaches altitude 10° 20:34:52 10° 336° (NNW) 2,470 5.9 -8.2°
Maximum altitude 20:40:27 55° 54° (NE) 1,014 2.6 -8.8°
Enters shadow 20:45:40 12° 131° (SE) 2,346 3.8 -9.4°
